Location: Unspecified
(0.0000°N, 0.0000°E)
Time: 14:37:15
(UTC+00:00)

ISS - Visible Passes

Search period start: 20 September 2018 00:00
Search period end: 30 September 2018 00:00
Orbit: 402 x 408 km, 51.6° (Epoch: 20 September)

Date Brightness Start Highest point End Pass type
(mag) Time Alt. Az. Time Alt. Az. Time Alt. Az.
20 Sep -1.7 05:11:37 10° N 05:14:28 28° NE 05:17:19 10° ESE visible
20 Sep -0.7 18:23:09 10° W 18:24:51 13° NW 18:26:33 10° NNW visible
21 Sep -0.6 04:21:29 10° NE 04:22:33 11° NE 04:23:36 10° ENE visible
22 Sep -3.8 05:04:02 12° NW 05:06:55 59° SW 05:10:07 10° SSE visible
23 Sep -2.3 04:15:37 37° E 04:15:37 37° E 04:18:05 10° SE visible
24 Sep -1.8 04:59:45 14° SW 04:59:45 14° SW 05:01:14 10° SSW visible
